Date,TemperatureHighF,TemperatureAvgF,TemperatureLowF,DewpointHighF,DewpointAvgF,DewpointLowF,HumidityHigh,HumidityAvg,HumidityLow,PressureMaxIn,PressureMinIn,WindSpeedMaxMPH,WindSpeedAvgMPH,GustSpeedMaxMPH,PrecipitationSumIn
2014-1-1,4.9,-4.8,-12.2,2.4,-8.4,-16.4,89,84,80,30.57,30.30,5,0,5,0.00
2014-1-2,2.5,-6.2,-11.5,-1.5,-9.9,-15.2,86,84,81,30.52,30.40,6,0,6,0.00
2014-1-3,15.5,0.1,-13.6,12.4,-3.2,-17.5,91,85,83,30.44,29.82,10,1,10,0.00
2014-1-4,27.8,22.6,15.5,26.3,19.7,11.3,95,89,80,30.02,29.63,25,5,25,0.00
2014-1-5,21.8,17.6,10.3,18.1,13.3,4.8,90,83,72,30.15,29.88,14,3,14,0.00
2014-1-6,10.3,2.5,-1.5,4.8,-2.1,-5.5,87,81,74,29.88,29.75,19,4,27,0.00
2014-1-7,6.3,0.9,-4.3,4.0,-1.8,-7.4,90,88,86,30.11,29.75,32,9,32,0.00
2014-1-8,15.8,9.0,-0.7,13.4,6.6,-3.7,91,90,87,30.43,30.11,22,4,22,0.00
2014-1-9,19.5,12.6,1.3,16.7,10.0,-1.5,92,89,86,30.54,30.24,18,1,18,0.00
2014-1-10,31.5,24.5,17.9,30.6,23.0,15.3,97,94,89,30.24,29.62,8,0,8,0.00
2014-1-11,35.0,33.6,31.7,34.8,32.6,30.3,99,96,89,29.60,29.21,30,5,30,0.00
2014-1-12,33.7,32.1,30.2,30.9,29.6,27.9,94,90,85,29.72,29.46,25,3,25,0.00
2014-1-13,36.6,33.3,29.6,35.3,31.1,24.7,96,92,81,29.60,29.40,24,4,24,0.04
2014-1-14,29.8,27.1,21.7,25.2,23.6,19.6,93,86,80,29.78,29.59,17,1,17,0.00
2014-1-15,21.7,14.0,8.3,19.7,10.1,3.2,92,84,76,29.91,29.73,16,2,16,0.00
2014-1-16,24.9,21.7,16.7,23.4,19.8,13.9,94,92,88,29.77,29.58,8,1,8,0.00
2014-1-17,29.3,24.4,18.6,27.3,22.6,16.2,95,93,89,29.82,29.64,21,3,21,0.00
2014-1-18,19.0,14.0,6.3,16.2,10.9,3.7,92,88,80,29.90,29.68,10,1,10,0.00
2014-1-19,24.2,17.4,5.4,23.2,14.8,0.9,96,89,78,29.67,29.31,29,4,29,0.00
2014-1-20,5.4,-1.7,-6.8,0.9,-7.6,-12.6,81,75,59,30.25,29.66,16,2,16,0.00
2014-1-21,1.2,-6.6,-16.9,-4.9,-11.5,-21.0,84,79,72,30.36,30.23,14,0,14,0.00
2014-1-22,7.0,2.3,-2.8,4.1,-1.5,-7.1,88,84,80,30.23,29.98,13,2,13,0.00
2014-1-23,5.9,-1.0,-4.8,1.1,-6.3,-11.1,87,78,68,30.50,30.15,18,2,18,0.00
2014-1-24,17.9,9.2,-8.7,16.5,7.0,-12.0,94,90,85,30.36,29.22,26,2,26,0.00
2014-1-25,19.4,6.1,-1.9,18.1,3.7,-4.8,95,89,86,29.66,29.16,34,4,34,0.00
2014-1-26,6.0,-1.6,-10.5,3.6,-4.6,-14.2,90,86,83,29.67,29.40,6,0,6,0.00
2014-1-27,5.2,-1.8,-9.5,2.5,-5.0,-13.5,89,86,82,30.07,29.47,17,1,17,0.00
2014-1-28,3.8,-1.5,-9.0,0.9,-4.5,-12.3,88,87,85,30.12,29.86,28,3,28,0.00
2014-1-29,14.9,8.1,2.2,12.4,5.5,-0.5,91,89,85,29.97,29.80,20,2,20,0.00
2014-1-30,27.4,22.3,14.3,24.3,19.9,11.9,95,90,86,29.90,29.53,24,2,24,0.00
2014-1-31,17.9,14.0,10.1,15.7,10.9,7.0,92,87,80,30.13,29.71,23,4,23,0.00